Location: *
(50.9167°S, 179.4000°W)
Time: 04:48:08
(UTC+00:00)

ATLAS 2AS CENTAUR R/B - Pass Details

Date: 24 June 2024
Orbit: 1019 x 1192 km, 63.7° (Epoch: 21 July)

Event Time Altitude Azimuth Distance (km) Brightness Sun altitude
Exits shadow 16:34:17 30° 187° (S) 1,914 3.9 -31.3°
Maximum altitude 16:35:40 33° 166° (SSE) 1,849 4.0 -31.1°
Drops below altitude 10° 16:42:14 10° 104° (ESE) 3,097 6.0 -30.1°
Sets 16:45:22 0° 94° (E) 4,075 6.9 -29.6°
